<?xml version="1.0" encoding="UTF-8" standalone="no" ?>
<gpx xmlns="http://www.topografix.com/GPX/1/1" xmlns:xsi="http://www.w3.org/2001/XMLSchema-instance" xsi:schemaLocation="http://www.topografix.com/GPX/1/1 http://www.topografix.com/GPX/1/1/gpx.xsd" version="1.1" creator="VisuGPX - https://www.visugpx.com">
  <metadata>
    <name>20190321 - Le carrefour des 4 Cantons</name>
    <desc><![CDATA[Carrefour des quatres cantons - Lyons la Forêt]]></desc>
  </metadata>
  <trk>
    <name><![CDATA[20190313145023-PLhPi]]></name>
    <trkseg>
      <trkpt lat="49.37571" lon="1.50902">
        <ele>108</ele>
        <time>2003-10-13T21:54:16.000Z</time>
      </trkpt>
      <trkpt lat="49.37494" lon="1.5113">
        <ele>128</ele>
        <time>2003-10-13T21:54:16.000Z</time>
      </trkpt>
      <trkpt lat="49.37407" lon="1.5129">
        <ele>134</ele>
        <time>2003-10-13T21:54:16.000Z</time>
      </trkpt>
      <trkpt lat="49.37329" lon="1.51349">
        <ele>137</ele>
        <time>2003-10-13T21:54:16.000Z</time>
      </trkpt>
      <trkpt lat="49.37091" lon="1.51408">
        <ele>150</ele>
        <time>2003-10-13T21:54:16.000Z</time>
      </trkpt>
      <trkpt lat="49.3718" lon="1.51276">
        <ele>151</ele>
        <time>2003-10-13T21:54:16.000Z</time>
      </trkpt>
      <trkpt lat="49.36841" lon="1.5069">
        <ele>172</ele>
        <time>2003-10-13T21:54:16.000Z</time>
      </trkpt>
      <trkpt lat="49.36519" lon="1.50152">
        <ele>173</ele>
        <time>2003-10-13T21:54:16.000Z</time>
      </trkpt>
      <trkpt lat="49.3636" lon="1.4989">
        <ele>163</ele>
        <time>2003-10-13T21:54:16.000Z</time>
      </trkpt>
      <trkpt lat="49.36536" lon="1.48766">
        <ele>161</ele>
        <time>2003-10-13T21:54:16.000Z</time>
      </trkpt>
      <trkpt lat="49.36512" lon="1.47882">
        <ele>129</ele>
        <time>2003-10-13T21:54:16.000Z</time>
      </trkpt>
      <trkpt lat="49.36608" lon="1.47881">
        <ele>118</ele>
        <time>2003-10-13T21:54:16.000Z</time>
      </trkpt>
      <trkpt lat="49.36683" lon="1.4791">
        <ele>107</ele>
        <time>2003-10-13T21:54:16.000Z</time>
      </trkpt>
      <trkpt lat="49.368" lon="1.48019">
        <ele>90</ele>
        <time>2003-10-13T21:54:16.000Z</time>
      </trkpt>
      <trkpt lat="49.36901" lon="1.47927">
        <ele>91</ele>
        <time>2003-10-13T21:54:16.000Z</time>
      </trkpt>
      <trkpt lat="49.37004" lon="1.47936">
        <ele>103</ele>
        <time>2003-10-13T21:54:16.000Z</time>
      </trkpt>
      <trkpt lat="49.37049" lon="1.48221">
        <ele>100</ele>
        <time>2003-10-13T21:54:16.000Z</time>
      </trkpt>
      <trkpt lat="49.37094" lon="1.48316">
        <ele>103</ele>
        <time>2003-10-13T21:54:16.000Z</time>
      </trkpt>
      <trkpt lat="49.37048" lon="1.48124">
        <ele>105</ele>
        <time>2003-10-13T21:54:16.000Z</time>
      </trkpt>
      <trkpt lat="49.37126" lon="1.48072">
        <ele>115</ele>
        <time>2003-10-13T21:54:16.000Z</time>
      </trkpt>
      <trkpt lat="49.37219" lon="1.48128">
        <ele>120</ele>
        <time>2003-10-13T21:54:16.000Z</time>
      </trkpt>
      <trkpt lat="49.37531" lon="1.48195">
        <ele>153</ele>
        <time>2003-10-13T21:54:16.000Z</time>
      </trkpt>
      <trkpt lat="49.37611" lon="1.48315">
        <ele>159</ele>
        <time>2003-10-13T21:54:16.000Z</time>
      </trkpt>
      <trkpt lat="49.37695" lon="1.48475">
        <ele>166</ele>
        <time>2003-10-13T21:54:16.000Z</time>
      </trkpt>
      <trkpt lat="49.37779" lon="1.48614">
        <ele>171</ele>
        <time>2003-10-13T21:54:16.000Z</time>
      </trkpt>
      <trkpt lat="49.38071" lon="1.48919">
        <ele>175</ele>
        <time>2003-10-13T21:54:16.000Z</time>
      </trkpt>
      <trkpt lat="49.3806" lon="1.48988">
        <ele>175</ele>
        <time>2003-10-13T21:54:16.000Z</time>
      </trkpt>
      <trkpt lat="49.37947" lon="1.49437">
        <ele>165</ele>
        <time>2003-10-13T21:54:16.000Z</time>
      </trkpt>
      <trkpt lat="49.37834" lon="1.49446">
        <ele>162</ele>
        <time>2003-10-13T21:54:16.000Z</time>
      </trkpt>
      <trkpt lat="49.37709" lon="1.49462">
        <ele>154</ele>
        <time>2003-10-13T21:54:16.000Z</time>
      </trkpt>
      <trkpt lat="49.37588" lon="1.49478">
        <ele>142</ele>
        <time>2003-10-13T21:54:16.000Z</time>
      </trkpt>
      <trkpt lat="49.37487" lon="1.49576">
        <ele>133</ele>
        <time>2003-10-13T21:54:16.000Z</time>
      </trkpt>
      <trkpt lat="49.37396" lon="1.49649">
        <ele>121</ele>
        <time>2003-10-13T21:54:16.000Z</time>
      </trkpt>
      <trkpt lat="49.37268" lon="1.49758">
        <ele>98</ele>
        <time>2003-10-13T21:54:16.000Z</time>
      </trkpt>
      <trkpt lat="49.37259" lon="1.5005">
        <ele>98</ele>
        <time>2003-10-13T21:54:16.000Z</time>
      </trkpt>
      <trkpt lat="49.37328" lon="1.50201">
        <ele>99</ele>
        <time>2003-10-13T21:54:16.000Z</time>
      </trkpt>
      <trkpt lat="49.37352" lon="1.50444">
        <ele>102</ele>
        <time>2003-10-13T21:54:16.000Z</time>
      </trkpt>
      <trkpt lat="49.37376" lon="1.50623">
        <ele>101</ele>
        <time>2003-10-13T21:54:16.000Z</time>
      </trkpt>
      <trkpt lat="49.37397" lon="1.50819">
        <ele>101</ele>
        <time>2003-10-13T21:54:16.000Z</time>
      </trkpt>
      <trkpt lat="49.37467" lon="1.50848">
        <ele>102</ele>
        <time>2003-10-13T21:54:16.000Z</time>
      </trkpt>
      <trkpt lat="49.37521" lon="1.50841">
        <ele>102</ele>
        <time>2003-10-13T21:54:16.000Z</time>
      </trkpt>
      <trkpt lat="49.37733" lon="1.50975">
        <ele>106</ele>
        <time>2003-10-13T21:54:16.000Z</time>
      </trkpt>
      <trkpt lat="49.37889" lon="1.5112">
        <ele>106</ele>
        <time>2003-10-13T21:54:16.000Z</time>
      </trkpt>
      <trkpt lat="49.37992" lon="1.51418">
        <ele>112</ele>
        <time>2003-10-13T21:54:16.000Z</time>
      </trkpt>
      <trkpt lat="49.38082" lon="1.51468">
        <ele>111</ele>
        <time>2003-10-13T21:54:16.000Z</time>
      </trkpt>
      <trkpt lat="49.38204" lon="1.51559">
        <ele>111</ele>
        <time>2003-10-13T21:54:16.000Z</time>
      </trkpt>
      <trkpt lat="49.38277" lon="1.51699">
        <ele>115</ele>
        <time>2003-10-13T21:54:16.000Z</time>
      </trkpt>
      <trkpt lat="49.38286" lon="1.51805">
        <ele>116</ele>
        <time>2003-10-13T21:54:16.000Z</time>
      </trkpt>
      <trkpt lat="49.38263" lon="1.51919">
        <ele>114</ele>
        <time>2003-10-13T21:54:16.000Z</time>
      </trkpt>
      <trkpt lat="49.3826" lon="1.52174">
        <ele>114</ele>
        <time>2003-10-13T21:54:16.000Z</time>
      </trkpt>
      <trkpt lat="49.38355" lon="1.52293">
        <ele>115</ele>
        <time>2003-10-13T21:54:16.000Z</time>
      </trkpt>
      <trkpt lat="49.38412" lon="1.52481">
        <ele>117</ele>
        <time>2003-10-13T21:54:16.000Z</time>
      </trkpt>
      <trkpt lat="49.38435" lon="1.52532">
        <ele>116</ele>
        <time>2003-10-13T21:54:16.000Z</time>
      </trkpt>
      <trkpt lat="49.38494" lon="1.52614">
        <ele>121</ele>
        <time>2003-10-13T21:54:16.000Z</time>
      </trkpt>
      <trkpt lat="49.38477" lon="1.52707">
        <ele>124</ele>
        <time>2003-10-13T21:54:16.000Z</time>
      </trkpt>
      <trkpt lat="49.38417" lon="1.52815">
        <ele>119</ele>
        <time>2003-10-13T21:54:16.000Z</time>
      </trkpt>
      <trkpt lat="49.38415" lon="1.52897">
        <ele>119</ele>
        <time>2003-10-13T21:54:16.000Z</time>
      </trkpt>
      <trkpt lat="49.38542" lon="1.53005">
        <ele>121</ele>
        <time>2003-10-13T21:54:16.000Z</time>
      </trkpt>
      <trkpt lat="49.38483" lon="1.53581">
        <ele>140</ele>
        <time>2003-10-13T21:54:16.000Z</time>
      </trkpt>
      <trkpt lat="49.38461" lon="1.53743">
        <ele>143</ele>
        <time>2003-10-13T21:54:16.000Z</time>
      </trkpt>
      <trkpt lat="49.3844" lon="1.53891">
        <ele>144</ele>
        <time>2003-10-13T21:54:16.000Z</time>
      </trkpt>
      <trkpt lat="49.38346" lon="1.53975">
        <ele>144</ele>
        <time>2003-10-13T21:54:16.000Z</time>
      </trkpt>
      <trkpt lat="49.38287" lon="1.53814">
        <ele>146</ele>
        <time>2003-10-13T21:54:16.000Z</time>
      </trkpt>
      <trkpt lat="49.38268" lon="1.53756">
        <ele>146</ele>
        <time>2003-10-13T21:54:16.000Z</time>
      </trkpt>
      <trkpt lat="49.38209" lon="1.53609">
        <ele>147</ele>
        <time>2003-10-13T21:54:16.000Z</time>
      </trkpt>
      <trkpt lat="49.38186" lon="1.5352">
        <ele>147</ele>
        <time>2003-10-13T21:54:16.000Z</time>
      </trkpt>
      <trkpt lat="49.38149" lon="1.53397">
        <ele>147</ele>
        <time>2003-10-13T21:54:16.000Z</time>
      </trkpt>
      <trkpt lat="49.38103" lon="1.53239">
        <ele>146</ele>
        <time>2003-10-13T21:54:16.000Z</time>
      </trkpt>
      <trkpt lat="49.38062" lon="1.53126">
        <ele>144</ele>
        <time>2003-10-13T21:54:16.000Z</time>
      </trkpt>
      <trkpt lat="49.3781" lon="1.52391">
        <ele>143</ele>
        <time>2003-10-13T21:54:16.000Z</time>
      </trkpt>
      <trkpt lat="49.37786" lon="1.52254">
        <ele>141</ele>
        <time>2003-10-13T21:54:16.000Z</time>
      </trkpt>
      <trkpt lat="49.37771" lon="1.51992">
        <ele>150</ele>
        <time>2003-10-13T21:54:16.000Z</time>
      </trkpt>
      <trkpt lat="49.3781" lon="1.51765">
        <ele>151</ele>
        <time>2003-10-13T21:54:16.000Z</time>
      </trkpt>
      <trkpt lat="49.37846" lon="1.51702">
        <ele>149</ele>
        <time>2003-10-13T21:54:16.000Z</time>
      </trkpt>
      <trkpt lat="49.37958" lon="1.51714">
        <ele>145</ele>
        <time>2003-10-13T21:54:16.000Z</time>
      </trkpt>
      <trkpt lat="49.38016" lon="1.51638">
        <ele>141</ele>
        <time>2003-10-13T21:54:16.000Z</time>
      </trkpt>
      <trkpt lat="49.37943" lon="1.51563">
        <ele>137</ele>
        <time>2003-10-13T21:54:16.000Z</time>
      </trkpt>
      <trkpt lat="49.37902" lon="1.51426">
        <ele>123</ele>
        <time>2003-10-13T21:54:16.000Z</time>
      </trkpt>
      <trkpt lat="49.37883" lon="1.51234">
        <ele>109</ele>
        <time>2003-10-13T21:54:16.000Z</time>
      </trkpt>
      <trkpt lat="49.37792" lon="1.51043">
        <ele>107</ele>
        <time>2003-10-13T21:54:16.000Z</time>
      </trkpt>
      <trkpt lat="49.37611" lon="1.50908">
        <ele>107</ele>
        <time>2003-10-13T21:54:16.000Z</time>
      </trkpt>
    </trkseg>
  </trk>
</gpx>